Total_Precipitation_Accumulation
0.24 0.33 0.44 0.43 0.42 0.46 0.39 0.31 0.28 0.27 0.23 0.21 0.19 0.18 0.18 0.16 0.15 0.15 0.14 0.15 0.16 0.15 0.15 0.16 0.20 0.22 0.23 0.22 0.25 0.31 0.35 0.42 0.51 0.58 0.73 0.95 1.22 1.33 1.43 1.39 1.21 1.16 1.28 1.52
0.27 0.20 0.21 0.28 0.34 0.40 0.37 0.33 0.26 0.26 0.16 0.13 0.12 0.12 0.12 0.13 0.14 0.14 0.13 0.12 0.12 0.12 0.10 0.09 0.10 0.13 0.15 0.16 0.17 0.22 0.31 0.40 0.48 0.57 0.75 0.91 1.06 1.07 1.24 1.40 1.38 1.30 1.29 1.43
0.20 0.15 0.17 0.23 0.29 0.33 0.33 0.29 0.28 0.28 0.17 0.11 0.10 0.11 0.09 0.11 0.13 0.13 0.14 0.12 0.12 0.11 0.09 0.08 0.07 0.08 0.10 0.11 0.12 0.16 0.23 0.33 0.45 0.61 0.85 1.07 1.26 1.34 1.41 1.34 1.43 1.44 1.37 1.41
0.28 0.20 0.18 0.22 0.24 0.21 0.25 0.18 0.15 0.18 0.23 0.21 0.19 0.22 0.14 0.15 0.19 0.20 0.20 0.17 0.15 0.14 0.10 0.08 0.07 0.08 0.08 0.09 0.09 0.12 0.21 0.36 0.57 0.78 1.04 1.30 1.50 1.54 1.43 1.48 1.51 1.39 1.33 1.30
0.26 0.19 0.15 0.15 0.15 0.14 0.18 0.12 0.08 0.11 0.15 0.13 0.11 0.18 0.16 0.22 0.30 0.32 0.30 0.26 0.20 0.17 0.14 0.13 0.11 0.13 0.14 0.14 0.16 0.24 0.44 0.68 0.93 1.14 1.41 1.70 1.70 1.59 1.50 1.50 1.47 1.42 1.43 1.40
0.22 0.16 0.14 0.13 0.13 0.11 0.13 0.09 0.08 0.10 0.13 0.09 0.06 0.14 0.24 0.29 0.33 0.37 0.36 0.30 0.23 0.19 0.22 0.27 0.31 0.37 0.42 0.44 0.58 0.79 1.06 1.25 1.33 1.46 1.61 1.73 1.71 1.72 1.67 1.49 1.39 1.39 1.43 1.49
0.14 0.11 0.10 0.09 0.10 0.07 0.07 0.08 0.14 0.16 0.17 0.14 0.12 0.27 0.38 0.34 0.29 0.29 0.30 0.25 0.20 0.24 0.34 0.45 0.61 0.74 0.84 0.96 1.08 1.22 1.42 1.56 1.51 1.48 1.52 1.56 1.57 1.57 1.56 1.50 1.40 1.35 1.36 1.37
0.09 0.06 0.05 0.04 0.03 0.03 0.04 0.09 0.24 0.31 0.26 0.25 0.28 0.47 0.52 0.42 0.31 0.23 0.17 0.16 0.24 0.38 0.52 0.63 0.72 0.83 1.00 1.14 1.19 1.19 1.30 1.41 1.36 1.33 1.31 1.28 1.34 1.37 1.34 1.26 1.25 1.28 1.35 1.33
0.06 0.04 0.03 0.02 0.02 0.03 0.05 0.07 0.15 0.28 0.24 0.24 0.36 0.62 0.58 0.37 0.31 0.25 0.22 0.25 0.39 0.58 0.79 0.94 1.04 1.17 1.21 1.25 1.30 1.22 1.21 1.26 1.26 1.18 1.09 1.09 1.15 1.20 1.23 1.18 1.19 1.17 1.17 1.09
0.04 0.03 0.02 0.01 0.01 0.03 0.09 0.16 0.25 0.43 0.48 0.47 0.55 0.66 0.59 0.47 0.43 0.45 0.52 0.61 0.67 0.78 1.03 1.33 1.57 1.75 1.57 1.30 1.19 1.14 1.07 1.07 1.15 1.11 1.04 1.01 1.10 1.11 1.10 1.13 1.10 1.10 1.09 1.01
0.02 0.03 0.02 0.01 0.04 0.08 0.15 0.26 0.34 0.46 0.56 0.71 0.89 0.99 0.84 0.86 0.88 0.95 1.06 1.10 1.10 1.21 1.19 1.34 1.54 1.71 1.61 1.30 1.06 1.06 1.07 1.02 1.00 0.99 1.01 1.00 0.99 0.90 0.89 0.94 0.95 0.94 0.95 0.99
0.01 0.04 0.03 0.02 0.09 0.16 0.28 0.38 0.52 0.69 0.64 0.70 0.90 1.07 0.95 0.94 0.96 1.05 1.23 1.30 1.29 1.20 1.10 1.09 1.14 1.20 1.22 1.07 0.88 0.85 0.97 1.02 0.95 0.92 0.95 0.94 0.85 0.81 0.78 0.76 0.73 0.66 0.64 0.67
0.02 0.09 0.12 0.12 0.24 0.35 0.53 0.60 0.48 0.46 0.52 0.61 0.84 0.85 0.63 0.58 0.73 0.89 1.05 1.13 1.06 1.00 1.07 1.03 0.95 0.89 0.91 0.89 0.81 0.78 0.90 1.03 1.05 1.00 0.86 0.78 0.74 0.71 0.69 0.61 0.57 0.55 0.50 0.50
0.02 0.08 0.14 0.24 0.31 0.41 0.63 0.71 0.55 0.44 0.50 0.50 0.57 0.51 0.36 0.42 0.59 0.66 0.69 0.70 0.70 0.75 0.77 0.72 0.66 0.61 0.60 0.64 0.67 0.73 0.83 0.91 1.02 1.12 1.01 0.86 0.77 0.70 0.64 0.57 0.54 0.51 0.49 0.52
0.00 0.01 0.03 0.06 0.09 0.17 0.36 0.47 0.38 0.27 0.25 0.31 0.33 0.34 0.37 0.46 0.55 0.54 0.48 0.42 0.41 0.41 0.39 0.38 0.37 0.34 0.33 0.33 0.35 0.44 0.56 0.71 0.89 1.09 1.07 0.92 0.86 0.79 0.65 0.60 0.60 0.58 0.61 0.57
0.00 0.00 0.00 0.02 0.04 0.07 0.17 0.20 0.16 0.09 0.12 0.23 0.29 0.36 0.40 0.46 0.53 0.50 0.42 0.35 0.28 0.26 0.26 0.25 0.23 0.21 0.16 0.14 0.16 0.17 0.25 0.42 0.59 0.75 0.82 0.77 0.69 0.61 0.58 0.57 0.55 0.52 0.51 0.47
0.00 0.00 0.01 0.01 0.02 0.04 0.11 0.11 0.12 0.15 0.15 0.16 0.26 0.38 0.46 0.58 0.76 0.67 0.50 0.41 0.28 0.21 0.20 0.19 0.20 0.19 0.17 0.16 0.14 0.14 0.17 0.24 0.35 0.47 0.56 0.55 0.49 0.43 0.40 0.45 0.45 0.43 0.39 0.40
0.00 0.02 0.06 0.05 0.08 0.19 0.24 0.19 0.26 0.34 0.26 0.22 0.29 0.37 0.50 0.83 1.03 0.66 0.42 0.38 0.31 0.21 0.18 0.17 0.17 0.15 0.14 0.13 0.11 0.11 0.14 0.17 0.18 0.22 0.26 0.27 0.28 0.27 0.29 0.31 0.32 0.33 0.32 0.30
0.00 0.03 0.08 0.10 0.13 0.39 0.36 0.19 0.31 0.36 0.31 0.24 0.32 0.37 0.40 0.45 0.41 0.25 0.15 0.16 0.18 0.13 0.10 0.08 0.08 0.06 0.05 0.04 0.04 0.04 0.05 0.05 0.05 0.06 0.08 0.10 0.12 0.14 0.17 0.18 0.21 0.30 0.33 0.34
0.00 0.02 0.06 0.07 0.08 0.24 0.27 0.10 0.17 0.26 0.31 0.13 0.14 0.16 0.11 0.07 0.08 0.11 0.10 0.06 0.05 0.03 0.02 0.02 0.02 0.01 0.01 0.00 0.00 0.00 0.00 0.00 0.00 0.00 0.00 0.01 0.02 0.03 0.05 0.08 0.11 0.17 0.24 0.31
0.00 0.01 0.02 0.02 0.04 0.07 0.05 0.05 0.10 0.25 0.28 0.07 0.04 0.03 0.01 0.01 0.01 0.05 0.10 0.06 0.03 0.01 0.00 0.00 0.00 0.00 0.00 0.00 0.00 0.00 0.00 0.00 0.00 0.00 0.00 0.00 0.00 0.00 0.01 0.02 0.03 0.06 0.11 0.15
0.00 0.01 0.01 0.01 0.02 0.03 0.01 0.05 0.11 0.11 0.05 0.02 0.01 0.01 0.00 0.00 0.00 0.02 0.05 0.03 0.02 0.01 0.00 0.00 0.01 0.00 0.00 0.00 0.00 0.00 0.00 0.00 0.00 0.00 0.00 0.01 0.01 0.00 0.01 0.02 0.02 0.02 0.04 0.07
0.00 0.01 0.01 0.01 0.02 0.02 0.01 0.03 0.03 0.02 0.01 0.00 0.00 0.00 0.00 0.00 0.00 0.00 0.01 0.02 0.01 0.00 0.00 0.00 0.01 0.01 0.00 0.00 0.00 0.00 0.00 0.00 0.00 0.00 0.00 0.00 0.01 0.01 0.01 0.01 0.02 0.02 0.03 0.06
0.00 0.00 0.01 0.01 0.01 0.00 0.00 0.01 0.00 0.01 0.01 0.00 0.00 0.00 0.00 0.00 0.00 0.00 0.00 0.01 0.01 0.00 0.00 0.00 0.00 0.01 0.01 0.00 0.00 0.00 0.00 0.00 0.00 0.00 0.00 0.00 0.01 0.01 0.01 0.02 0.02 0.03 0.03 0.05
0.00 0.01 0.01 0.01 0.00 0.00 0.00 0.00 0.00 0.00 0.00 0.00 0.00 0.00 0.00 0.00 0.00 0.00 0.00 0.01 0.00 0.00 0.00 0.00 0.00 0.01 0.00 0.00 0.00 0.00 0.00 0.00 0.00 0.00 0.00 0.01 0.01 0.02 0.02 0.02 0.02 0.03 0.03 0.05
0.00 0.00 0.01 0.00 0.00 0.00 0.00 0.00 0.00 0.01 0.00 0.00 0.00 0.00 0.00 0.00 0.00 0.00 0.00 0.00 0.00 0.00 0.00 0.00 0.00 0.00 0.01 0.00 0.00 0.00 0.00 0.00 0.00 0.00 0.00 0.00 0.01 0.02 0.02 0.03 0.03 0.02 0.02 0.03